Home > Weather > Netanya > Past weeks

Flag for Israel Past Weather in Netanya, Israel — Yesterday and Last 2 Weeks

Now
77 °F

Sunny.


Feels Like: 79 °F
Forecast: 71 / 84 °F
Wind: 13 mph from West

Location: Dov Airport

Current Time: May 25, 2016 at 2:20:52 PM

Latest Report: May 25, 2016 at 1:50 PM


Visibility: 10 mi

Pressure: 29.98 "Hg

Humidity: 54%

Dew Point: 59 °F

Location of NetanyaLocation

Past Weather in Netanya — Graph

°F

Netanya Temperature Yesterday

Maximum temperature yesterday: 77 °F (at 1:50 PM)
Minimum temperature yesterday: 70 °F (at 5:50 AM)
Average temperature yesterday: 74 °F

High & Low Weather Summary for the Past Weeks

 TemperatureHumidityPressure
High93 °F (May 15, 11:50 AM)94% (May 17, 5:50 AM)30.01 "Hg (May 17, 5:50 AM)
Low63 °F (May 12, 5:50 AM)11% (May 22, 4:50 PM)29.74 "Hg (May 16, 4:50 PM)
Average75 °F63%29.92 "Hg
* Reported May 10 12:50 PM — May 25 12:50 PM, Netanya, Weather by CustomWeather, © 2016

Note: Actual official high and low records may vary slightly from our data, if they occured in-between our weather recording intervals... More about our weather records

Advertising

Netanya Weather History for the Previous 24 Hours

Scroll right to see more
 ConditionsComfort  
Time TempWeatherWind HumidityBarometerVisibility
12:50 PM
Wed, May 25
75 °FSunny.12 mph61%29.98 "Hg10 mi
11:50 AM75 °FSunny.12 mph57%29.98 "Hg10 mi
10:50 AM75 °FSunny.12 mph57%29.98 "Hg10 mi
9:50 AM73 °FSunny.9 mph61%29.98 "Hg10 mi
8:50 AM73 °FPassing clouds.9 mph61%29.98 "HgN/A
7:50 AM72 °FScattered clouds.8 mph65%29.98 "HgN/A
6:50 AM70 °FScattered clouds.8 mph69%29.98 "HgN/A
5:50 AM70 °FPassing clouds.9 mph69%29.95 "HgN/A
4:57 AM70 °FPassing clouds.8 mph69%29.95 "HgN/A
10:50 PM
Tue, May 24
72 °FPassing clouds.12 mph73%29.98 "HgN/A
9:50 PM72 °FPassing clouds.9 mph73%29.98 "HgN/A
8:50 PM72 °FPassing clouds.8 mph73%29.98 "HgN/A
7:50 PM72 °FScattered clouds.12 mph69%29.98 "HgN/A
6:50 PM73 °FPassing clouds.13 mph61%29.98 "HgN/A
5:50 PM75 °FScattered clouds.14 mph61%29.98 "HgN/A
4:50 PM75 °FScattered clouds.15 mph61%29.98 "HgN/A
3:50 PM77 °FScattered clouds.14 mph57%29.98 "HgN/A
2:50 PM77 °FScattered clouds.N/A57%30.01 "HgN/A
Weather by CustomWeather, © 2016

See weather overviewHow to use our weather pages